FW4741 Weather Reports


Display with metric or nautical units.
time (UTC)temp
F
wind
direction
speed
MPH
gust
MPH
rain 1hr
in
rain 24hr
in
rain mn
in
humidity
%
barometer
mb
20260904105604 58 77 2.0 6.0 0.00 0.00 0.00 82 1022.9
20260904105104 58 77 2.0 6.0 0.00 0.00 0.00 82 1022.9
20260904104604 58 77 2.0 6.0 0.00 0.00 0.00 82 1022.9
20260904104104 58 77 2.0 6.0 0.00 0.00 0.00 81 1022.9
20260904103604 58 77 2.0 6.0 0.00 0.00 0.00 81 1022.9
20260904103104 58 77 2.0 6.0 0.00 0.00 0.00 81 1022.9
20260904102603 58 77 2.0 6.0 0.00 0.00 0.00 81 1022.9
20260904102103 57 77 2.0 6.0 0.00 0.00 0.00 83 1022.9
20260904101604 57 77 2.0 6.0 0.00 0.00 0.00 83 1022.9
20260904100604 57 77 2.0 6.0 0.00 0.00 0.00 84 1023.0
20260904095604 57 77 2.0 6.0 0.00 0.00 0.00 84 1022.9
20260904095103 57 77 2.0 6.0 0.00 0.00 0.00 85 1022.9
20260904094604 57 77 2.0 6.0 0.00 0.00 0.00 85 1022.9
20260904094103 57 77 2.0 6.0 0.00 0.00 0.00 85 1022.9
20260904093604 58 77 2.0 6.0 0.00 0.00 0.00 85 1022.9
20260904092603 59 77 2.0 6.0 0.00 0.00 0.00 83 1022.9
20260904092103 60 77 2.0 6.0 0.00 0.00 0.00 80 1022.9
20260904091604 60 77 2.0 6.0 0.00 0.00 0.00 79 1022.9
20260904091104 60 77 2.0 6.0 0.00 0.00 0.00 79 1022.8
20260904090604 60 77 2.0 6.0 0.00 0.00 0.00 79 1022.8
20260904085604 59 77 2.0 6.0 0.00 0.00 0.00 80 1022.8
20260904085104 59 77 2.0 6.0 0.00 0.00 0.00 81 1022.8
20260904084604 59 77 2.0 6.0 0.00 0.00 0.00 83 1022.8
20260904084104 59 77 2.0 6.0 0.00 0.00 0.00 83 1022.8
20260904082603 60 77 2.0 6.0 0.00 0.00 0.00 82 1022.9
20260904082104 60 77 2.0 6.0 0.00 0.00 0.00 82 1022.9
20260904081604 60 77 2.0 6.0 0.00 0.00 0.00 82 1022.9
20260904081104 60 77 2.0 6.0 0.00 0.00 0.00 82 1022.9
20260904080604 59 77 2.0 6.0 0.00 0.00 0.00 82 1023.0
20260904074603 60 77 2.0 6.0 0.00 0.00 0.00 81 1022.9
20260904074104 60 77 2.0 6.0 0.00 0.00 0.00 80 1022.8
20260904073604 60 77 2.0 6.0 0.00 0.00 0.00 81 1022.8
20260904072603 60 77 2.0 6.0 0.00 0.00 0.00 81 1022.8
20260904072104 61 77 2.0 6.0 0.00 0.00 0.00 80 1022.8
20260904071103 62 77 2.0 6.0 0.00 0.00 0.00 78 1022.7
20260904070603 62 77 2.0 6.0 0.00 0.00 0.00 77 1022.8
20260904065603 63 77 2.0 6.0 0.00 0.00 0.00 75 1022.8
20260904064604 63 77 2.0 6.0 0.00 0.00 0.00 74 1022.8
20260904064105 63 77 2.0 6.0 0.00 0.00 0.00 74 1022.9
20260904063604 63 77 2.0 6.0 0.00 0.00 0.00 74 1022.9
20260904063104 64 77 2.0 6.0 0.00 0.00 0.00 73 1023.0
20260904062604 64 77 2.0 6.0 0.00 0.00 0.00 73 1023.0
20260904062103 64 77 2.0 6.0 0.00 0.00 0.00 73 1022.9
20260904061604 64 77 2.0 6.0 0.00 0.00 0.00 73 1022.8
20260904061104 64 77 2.0 6.0 0.00 0.00 0.00 74 1022.9
20260904060604 64 77 2.0 6.0 0.00 0.00 0.00 74 1022.8
20260904060104 64 77 2.0 6.0 0.00 0.00 0.00 75 1022.8
20260904055604 64 77 2.0 6.0 0.00 0.00 0.00 75 1022.8
20260904055104 64 77 2.0 6.0 0.00 0.00 0.00 73 1022.8
20260904054604 64 77 2.0 6.0 0.00 0.00 0.00 73 1022.8
20260904053604 64 77 2.0 6.0 0.00 0.00 0.00 73 1022.8
20260904053103 64 77 2.0 6.0 0.00 0.00 0.00 74 1022.9
20260904052603 64 77 2.0 6.0 0.00 0.00 0.00 74 1022.9
20260904052103 64 77 2.0 6.0 0.00 0.00 0.00 74 1023.0
20260904051603 64 77 2.0 6.0 0.00 0.00 0.00 74 1023.0
20260904051104 65 77 2.0 6.0 0.00 0.00 0.00 74 1023.0
20260904050604 65 77 2.0 6.0 0.00 0.00 0.00 74 1023.0
20260904050104 65 77 2.0 6.0 0.00 0.00 0.00 74 1023.1
20260904045104 65 77 2.0 6.0 0.00 0.00 0.00 73 1023.3
20260904044105 65 77 2.0 6.0 0.00 0.00 0.00 74 1023.4
20260904043604 65 77 2.0 6.0 0.00 0.00 0.00 74 1023.4
20260904043104 65 77 2.0 6.0 0.00 0.00 0.00 74 1023.5
20260904042604 65 77 2.0 6.0 0.00 0.00 0.00 75 1023.5
20260904042104 65 77 2.0 6.0 0.00 0.00 0.00 76 1023.6
20260904041603 65 77 2.0 6.0 0.00 0.00 0.00 77 1023.7
20260904041104 65 77 2.0 6.0 0.00 0.00 0.00 77 1023.7
20260904040604 65 77 2.0 6.0 0.00 0.00 0.00 78 1023.8
20260904040103 64 77 2.0 6.0 0.00 0.00 0.00 77 1023.9
20260904035604 64 77 2.0 6.0 0.00 0.00 0.00 78 1023.9
20260904035104 64 77 2.0 6.0 0.00 0.00 0.00 78 1024.0
20260904034604 64 77 2.0 6.0 0.00 0.00 0.00 78 1024.0
20260904034104 65 77 2.0 6.0 0.00 0.00 0.00 78 1024.0
20260904033104 64 77 2.0 6.0 0.00 0.00 0.00 77 1023.9
20260904032604 64 77 2.0 6.0 0.00 0.00 0.00 77 1024.0
20260904032103 64 77 2.0 6.0 0.00 0.00 0.00 77 1023.9
20260904031603 65 77 2.0 6.0 0.00 0.00 0.00 76 1023.9
20260904031104 65 77 2.0 6.0 0.00 0.00 0.00 76 1023.8
20260904030604 64 77 2.0 6.0 0.00 0.00 0.00 76 1023.8
20260904030104 64 77 2.0 6.0 0.00 0.00 0.00 77 1023.7
20260904025604 65 77 2.0 6.0 0.00 0.00 0.00 76 1023.5
20260904025104 65 77 2.0 6.0 0.00 0.00 0.00 75 1023.4
20260904024604 65 77 2.0 6.0 0.00 0.00 0.00 74 1023.4
20260904023604 65 77 2.0 6.0 0.00 0.00 0.00 73 1023.4
20260904023104 65 77 2.0 6.0 0.00 0.00 0.00 73 1023.3
20260904022604 65 77 2.0 6.0 0.00 0.00 0.00 73 1023.3
20260904022104 65 77 2.0 6.0 0.00 0.00 0.00 72 1023.2
20260904021604 65 77 2.0 6.0 0.00 0.00 0.00 73 1023.2
20260904021104 65 77 2.0 6.0 0.00 0.00 0.00 74 1023.1
20260904020105 66 77 2.0 6.0 0.00 0.00 0.00 75 1022.9
20260904015604 66 77 2.0 6.0 0.00 0.00 0.00 74 1022.9
20260904015103 67 77 2.0 6.0 0.00 0.00 0.00 71 1022.9
20260904014603 67 77 2.0 6.0 0.00 0.00 0.00 70 1022.8
20260904014104 67 77 2.0 6.0 0.00 0.00 0.00 70 1022.8
20260904013604 67 77 2.0 6.0 0.00 0.00 0.00 71 1022.8
20260904012104 67 77 2.0 6.0 0.00 0.00 0.00 71 1022.8
20260904011604 68 77 2.0 6.0 0.00 0.00 0.00 69 1022.8
20260904011104 68 77 2.0 6.0 0.00 0.00 0.00 67 1022.8
20260904010604 68 77 2.0 6.0 0.00 0.00 0.00 67 1022.8
20260904010104 68 77 2.0 6.0 0.00 0.00 0.00 66 1022.8
20260904005603 68 77 2.0 6.0 0.00 0.00 0.00 69 1022.7
20260904005104 68 77 2.0 6.0 0.00 0.00 0.00 70 1022.6
20260904004603 68 77 2.0 6.0 0.00 0.00 0.00 70 1022.5
20260904004104 68 77 2.0 6.0 0.00 0.00 0.00 68 1022.4
20260904003104 69 77 2.0 6.0 0.00 0.00 0.00 69 1022.3
20260904002604 69 77 2.0 6.0 0.00 0.00 0.00 69 1022.3
20260904002104 69 77 2.0 6.0 0.00 0.00 0.00 70 1022.3
20260904001604 70 77 2.0 6.0 0.00 0.00 0.00 71 1022.2
20260904000603 71 77 2.0 6.0 0.00 0.00 0.00 70 1022.1
20260903235103 71 77 2.0 6.0 0.00 0.00 0.00 69 1022.0
20260903234604 71 77 2.0 6.0 0.00 0.00 0.00 68 1022.0
20260903234103 71 77 2.0 6.0 0.00 0.00 0.00 67 1021.9
20260903233104 71 77 2.0 6.0 0.00 0.00 0.00 69 1021.8
20260903232604 71 77 2.0 6.0 0.00 0.00 0.00 70 1021.8
20260903232104 71 77 2.0 6.0 0.00 0.00 0.00 73 1021.8
20260903231604 71 77 2.0 6.0 0.00 0.00 0.00 73 1021.8
20260903231103 71 77 2.0 6.0 0.00 0.00 0.00 71 1021.8
20260903230604 71 77 2.0 6.0 0.00 0.00 0.00 71 1021.9
20260903230103 71 77 2.0 6.0 0.00 0.00 0.00 70 1021.9
20260903225604 72 77 2.0 6.0 0.00 0.00 0.00 73 1021.9
20260903224603 72 77 2.0 6.0 0.00 0.00 0.00 64 1022.0
20260903223604 72 77 2.0 6.0 0.00 0.00 0.00 67 1022.2
20260903223103 73 77 2.0 6.0 0.00 0.00 0.00 67 1022.2
20260903222604 73 77 2.0 6.0 0.00 0.00 0.00 68 1022.2
20260903221103 73 77 2.0 6.0 0.00 0.00 0.00 68 1022.1
20260903220604 73 77 2.0 6.0 0.00 0.00 0.00 69 1022.1
20260903220104 73 77 2.0 6.0 0.00 0.00 0.00 68 1021.9
20260903215604 73 77 2.0 6.0 0.00 0.00 0.00 69 1021.8
20260903214603 74 77 2.0 6.0 0.00 0.00 0.00 63 1021.7
20260903214104 74 77 2.0 6.0 0.00 0.00 0.00 64 1021.5
20260903213604 74 77 2.0 6.0 0.00 0.00 0.00 65 1021.5
20260903213104 74 77 2.0 6.0 0.00 0.00 0.00 66 1021.6
20260903212603 74 77 2.0 6.0 0.00 0.00 0.00 65 1021.5
20260903212104 75 77 2.0 6.0 0.00 0.00 0.00 62 1021.6
20260903211604 75 77 2.0 6.0 0.00 0.00 0.00 63 1021.7
20260903211103 76 77 2.0 6.0 0.00 0.00 0.00 62 1021.8
20260903210604 76 77 2.0 6.0 0.00 0.00 0.00 61 1021.8
20260903210104 77 77 2.0 6.0 0.00 0.00 0.00 59 1021.6
20260903205604 78 77 2.0 6.0 0.00 0.00 0.00 56 1021.6
20260903204604 78 77 2.0 6.0 0.00 0.00 0.00 54 1022.1
20260903204104 78 77 2.0 6.0 0.00 0.00 0.00 54 1022.1
20260903203104 77 77 2.0 6.0 0.00 0.00 0.00 57 1022.1
20260903202603 77 77 2.0 6.0 0.00 0.00 0.00 57 1022.1
20260903202104 77 77 2.0 6.0 0.00 0.00 0.00 57 1022.2
20260903201604 77 77 2.0 6.0 0.00 0.00 0.00 57 1022.2
20260903201104 77 77 2.0 6.0 0.00 0.00 0.00 57 1022.3
20260903200104 77 77 2.0 6.0 0.00 0.00 0.00 57 1022.4
20260903195604 76 77 2.0 6.0 0.00 0.00 0.00 57 1022.5
20260903195104 75 77 2.0 6.0 0.00 0.00 0.00 59 1022.6
20260903194604 75 77 2.0 6.0 0.00 0.00 0.00 60 1022.6
20260903194104 75 77 2.0 6.0 0.00 0.00 0.00 59 1022.7
20260903193604 74 77 2.0 6.0 0.00 0.00 0.00 59 1022.7
20260903192605 74 77 2.0 6.0 0.00 0.00 0.00 60 1022.8
20260903192104 74 77 2.0 6.0 0.00 0.00 0.00 61 1022.9
20260903191604 74 77 2.0 6.0 0.00 0.00 0.00 63 1023.0
20260903191104 74 77 2.0 6.0 0.00 0.00 0.00 60 1023.0
20260903190603 74 77 2.0 6.0 0.00 0.00 0.00 62 1023.1
20260903190104 74 77 2.0 6.0 0.00 0.00 0.00 63 1023.2
20260903185104 73 77 2.0 6.0 0.00 0.00 0.00 64 1023.3
20260903184604 73 77 2.0 6.0 0.00 0.00 0.00 64 1023.3
20260903183603 73 77 2.0 6.0 0.00 0.00 0.00 65 1023.4
20260903182604 73 77 2.0 6.0 0.00 0.00 0.00 64 1023.5
20260903182103 73 77 2.0 6.0 0.00 0.00 0.00 65 1023.6
20260903181604 73 77 2.0 6.0 0.00 0.00 0.00 65 1023.6
20260903181104 73 77 2.0 6.0 0.00 0.00 0.00 65 1023.7
20260903180104 73 77 2.0 6.0 0.00 0.00 0.00 65 1023.8
20260903175604 73 77 2.0 6.0 0.00 0.00 0.00 64 1023.8
20260903175103 74 77 2.0 6.0 0.00 0.00 0.00 63 1023.9
20260903174604 74 77 2.0 6.0 0.00 0.00 0.00 60 1023.9
20260903173103 75 77 2.0 6.0 0.00 0.00 0.00 58 1023.9
20260903172603 75 77 2.0 6.0 0.00 0.00 0.00 60 1023.9
20260903172104 75 77 2.0 6.0 0.00 0.00 0.00 58 1024.0
20260903171604 75 77 2.0 6.0 0.00 0.00 0.00 57 1024.1
20260903171104 75 77 2.0 6.0 0.00 0.00 0.00 54 1024.1
20260903170604 76 77 2.0 6.0 0.00 0.00 0.00 54 1024.2
20260903170104 76 77 2.0 6.0 0.00 0.00 0.00 53 1024.2
20260903165604 76 77 2.0 6.0 0.00 0.00 0.00 53 1024.1
20260903164604 75 77 2.0 6.0 0.00 0.00 0.00 56 1024.1
20260903164104 75 77 2.0 6.0 0.00 0.00 0.00 57 1024.1
20260903163104 75 77 2.0 6.0 0.00 0.00 0.00 57 1024.1
20260903162104 74 77 2.0 6.0 0.00 0.00 0.00 62 1024.1
20260903161603 73 77 2.0 6.0 0.00 0.00 0.00 62 1024.1
20260903161103 72 77 2.0 6.0 0.00 0.00 0.00 65 1024.2
20260903160604 71 77 2.0 6.0 0.00 0.00 0.00 65 1024.2
20260903160103 71 77 2.0 6.0 0.00 0.00 0.00 66 1024.2
20260903155604 70 77 2.0 6.0 0.00 0.00 0.00 67 1024.2
20260903155104 70 77 2.0 6.0 0.00 0.00 0.00 68 1024.2
20260903154604 69 77 2.0 6.0 0.00 0.00 0.00 68 1024.2
20260903154104 69 77 2.0 6.0 0.00 0.00 0.00 69 1024.2
20260903153604 69 77 2.0 6.0 0.00 0.00 0.00 69 1024.2
20260903153104 68 77 2.0 6.0 0.00 0.00 0.00 71 1024.1
20260903152604 68 77 2.0 6.0 0.00 0.00 0.00 71 1024.1
20260903152104 67 77 2.0 6.0 0.00 0.00 0.00 71 1024.1
20260903151604 67 77 2.0 6.0 0.00 0.00 0.00 73 1024.1
20260903151105 66 77 2.0 6.0 0.00 0.00 0.00 73 1024.1
20260903150603 66 77 2.0 6.0 0.00 0.00 0.00 74 1024.1
20260903150104 65 77 2.0 6.0 0.00 0.00 0.00 75 1024.2
20260903145603 65 77 2.0 6.0 0.00 0.00 0.00 76 1024.3
20260903144604 65 77 2.0 6.0 0.00 0.00 0.00 77 1024.3
20260903144104 64 77 2.0 6.0 0.00 0.00 0.00 77 1024.3
20260903143603 64 77 2.0 6.0 0.00 0.00 0.00 78 1024.3
20260903143104 64 77 2.0 6.0 0.00 0.00 0.00 78 1024.4
20260903142604 64 77 2.0 6.0 0.00 0.00 0.00 78 1024.4
20260903142104 64 77 2.0 6.0 0.00 0.00 0.00 79 1024.4
20260903141604 64 77 2.0 6.0 0.00 0.00 0.00 79 1024.4
20260903140603 63 77 2.0 6.0 0.00 0.00 0.00 79 1024.4
20260903140104 63 77 2.0 6.0 0.00 0.00 0.00 79 1024.3
20260903135604 63 77 2.0 6.0 0.00 0.00 0.00 80 1024.3
20260903135103 63 77 2.0 6.0 0.00 0.00 0.00 80 1024.3
20260903134104 62 77 2.0 6.0 0.00 0.00 0.00 81 1024.3
20260903133604 62 77 2.0 6.0 0.00 0.00 0.00 81 1024.3
20260903133104 61 77 2.0 6.0 0.00 0.00 0.00 82 1024.3
20260903132604 61 77 2.0 6.0 0.00 0.00 0.00 82 1024.3
20260903132104 61 77 2.0 6.0 0.00 0.00 0.00 83 1024.3
20260903131604 61 77 2.0 6.0 0.00 0.00 0.00 82 1024.2
20260903131103 61 77 2.0 6.0 0.00 0.00 0.00 82 1024.2
20260903130603 61 77 2.0 6.0 0.00 0.00 0.00 82 1024.2
20260903130103 61 77 2.0 6.0 0.00 0.00 0.00 82 1024.2
20260903125603 62 77 2.0 6.0 0.00 0.00 0.00 82 1024.2
20260903125103 62 77 2.0 6.0 0.00 0.00 0.00 82 1024.1
20260903124604 62 77 2.0 6.0 0.00 0.00 0.00 82 1024.1
20260903124104 62 77 2.0 6.0 0.00 0.00 0.00 82 1024.0
20260903123604 62 77 2.0 6.0 0.00 0.00 0.00 81 1023.9
20260903123104 62 77 2.0 6.0 0.00 0.00 0.00 82 1023.9
20260903122603 62 77 2.0 6.0 0.00 0.00 0.00 82 1023.9
20260903122104 62 77 2.0 6.0 0.00 0.00 0.00 83 1023.8
20260903121604 62 77 2.0 6.0 0.00 0.00 0.00 83 1023.8
20260903121104 62 77 2.0 6.0 0.00 0.00 0.00 83 1023.8
20260903120604 62 77 2.0 6.0 0.00 0.00 0.00 83 1023.8
20260903120103 62 77 2.0 6.0 0.00 0.00 0.00 83 1023.8
20260903115604 62 77 2.0 6.0 0.00 0.00 0.00 83 1023.8
20260903115104 62 77 2.0 6.0 0.00 0.00 0.00 82 1023.7
20260903114604 62 77 2.0 6.0 0.00 0.00 0.00 81 1023.7
20260903114104 62 77 2.0 6.0 0.00 0.00 0.00 82 1023.7
20260903112604 62 77 2.0 6.0 0.00 0.00 0.00 82 1023.7
20260903112104 62 77 2.0 6.0 0.00 0.00 0.00 82 1023.7
20260903111604 62 77 2.0 6.0 0.00 0.00 0.00 81 1023.7
20260903111104 63 77 2.0 6.0 0.00 0.00 0.00 80 1023.7
20260903110604 63 77 2.0 6.0 0.00 0.00 0.00 80 1023.6